Tracking 34094 objects as of 10-May-2026
HD Live streaming from Space Station
objects crossing your sky now

WESTFORD NEEDLES

Track WESTFORD NEEDLES now!
10-day predictions
WESTFORD NEEDLES is classified as:


NORAD ID: 21660
Int'l Code: 1963-014FG
Perigee: 2,137.3 km
Apogee: 4,976.7 km
Inclination: 86.7 °
Period: 164.1 minutes
Semi major axis: 9927 km
RCS: 0.1099 m2 (medium)
Launch date: May 9, 1963
Source: United States (US)
Launch site: AIR FORCE WESTERN TEST RANGE (AFWTR)
Your satellite tracking list
Your tracking list is empty




NASA's NSSDC Master Catalog

Two Line Element Set (TLE):
1 21660U 63014FG  26130.39664494 -.00002009  00000-0 -29414+0 0  9998
2 21660  86.7129 265.9231 1429995  51.0628   6.1875  8.77630362 62387
Source of the keplerian elements: AFSPC